Manhattan, KS

9:41 AM CDT on May 29, 2017 (GMT -0500)
Manhattan Regional

Weather History for KMHK - September, 2012

Change the Weather History Date:

Monday, September 10, 2012

  Actual Average Record
Temperature  
Mean Temperature 68 °F 70 °F  
Max Temperature 88 °F 83 °F 102 °F (2000)
Min Temperature 48 °F 57 °F 45 °F (2001)
Degree Days  
Heating Degree Days 0 1  
Month to date heating degree days 2 5  
Since 1 July heating degree days 2 8  
Cooling Degree Days 3 6  
Month to date cooling degree days 94 76  
Year to date cooling degree days 1733 1259  
Growing Degree Days 18 (Base 50)    
Moisture  
Dew Point 50 °F    
Average Humidity 61    
Maximum Humidity 96    
Minimum Humidity 26    
Precipitation  
Precipitation 0.00 in 0.11 in 2.73 in (2015)
Month to date precipitation 0.46 1.35  
Year to date precipitation 18.13 25.89  
Sea Level Pressure  
Sea Level Pressure 30.05 in    
Wind  
Wind Speed 7 mph (South)    
Max Wind Speed 17 mph    
Max Gust Speed 23 mph    
Visibility 10 miles    
Events      
T = Trace of Precipitation, MM = Missing Value Source: NWS Daily Summary

Daily Weather History Graph

Daily Weather History Graph

Search for Another Location

Airport or City:

Trip Planner

Search our weather history database for the weather conditions in past years. The results will help you decide how hot, cold, wet, or windy it might be!

Date:

Astronomy

Sep. 10, 2012 Rise Set
Actual Time 7:03 AM CDT 7:42 PM CDT
Civil Twilight 6:36 AM CDT 8:09 PM CDT
Nautical Twilight 6:05 AM CDT 8:40 PM CDT
Astronomical Twilight 5:32 AM CDT 9:13 PM CDT
Moon 1:27 AM CDT (9/10) 4:11 PM CDT (9/10)
Length of Visible Light 13h 32m
Length of Day
12h 38m
Waning Crescent, 30% of the Moon is Illuminated
Sep 10
Waning Crescent
Sep 15
New
Sep 22
First Quarter
Sep 29
Full
Oct 8
Last Quarter

Hourly Weather History & Observations

Time (CDT) Temp. Dew Point Humidity Pressure Visibility Wind Dir Wind Speed Gust Speed Precip Events Conditions
12:52 AM 51.1 °F 50.0 °F 96% 30.14 in 10.0 mi Calm Calm - N/A   Clear
1:52 AM 50.0 °F 48.0 °F 93% 30.14 in 10.0 mi Calm Calm - N/A   Clear
2:52 AM 50.0 °F 48.0 °F 93% 30.13 in 10.0 mi Calm Calm - N/A   Clear
3:52 AM 51.1 °F 48.0 °F 89% 30.12 in 10.0 mi Calm Calm - N/A   Clear
4:52 AM 52.0 °F 48.0 °F 86% 30.12 in 10.0 mi Calm Calm - N/A   Clear
5:52 AM 52.0 °F 48.9 °F 89% 30.13 in 10.0 mi Calm Calm - N/A   Clear
6:52 AM 53.1 °F 48.0 °F 83% 30.14 in 10.0 mi SSW 5.8 mph - N/A   Clear
7:52 AM 55.9 °F 50.0 °F 80% 30.14 in 10.0 mi SSW 3.5 mph - N/A   Clear
8:52 AM 63.0 °F 52.0 °F 67% 30.14 in 10.0 mi South 4.6 mph - N/A   Clear
9:52 AM 69.1 °F 52.0 °F 54% 30.13 in 10.0 mi South 8.1 mph - N/A   Clear
10:52 AM 73.0 °F 51.1 °F 46% 30.12 in 10.0 mi South 11.5 mph - N/A   Clear
11:52 AM 77.0 °F 51.1 °F 40% 30.10 in 10.0 mi South 13.8 mph - N/A   Clear
12:52 PM 80.1 °F 51.1 °F 36% 30.08 in 10.0 mi South 12.7 mph - N/A   Clear
1:52 PM 82.4 °F 50.0 °F 32% 30.05 in 10.0 mi South 15.0 mph 20.7 mph N/A   Clear
2:52 PM 84.9 °F 50.0 °F 30% 30.01 in 10.0 mi SSW 10.4 mph 19.6 mph N/A   Clear
3:52 PM 87.1 °F 50.0 °F 28% 29.98 in 10.0 mi South 11.5 mph - N/A   Clear
4:52 PM 87.1 °F 48.9 °F 27% 29.97 in 10.0 mi South 10.4 mph - N/A   Clear
5:52 PM 87.1 °F 48.9 °F 27% 29.95 in 10.0 mi SSW 12.7 mph 20.7 mph N/A   Clear
6:52 PM 84.0 °F 50.0 °F 31% 29.94 in 10.0 mi South 9.2 mph - N/A   Clear
7:52 PM 75.0 °F 53.1 °F 46% 29.94 in 10.0 mi SSE 3.5 mph - N/A   Clear
8:52 PM 72.0 °F 52.0 °F 49% 29.94 in 10.0 mi South 4.6 mph - N/A   Clear
9:52 PM 72.0 °F 53.1 °F 51% 29.95 in 10.0 mi South 10.4 mph - N/A   Clear
10:52 PM 71.1 °F 54.0 °F 55% 29.95 in 10.0 mi South 8.1 mph - N/A   Clear
11:52 PM 70.0 °F 53.1 °F 55% 29.95 in 10.0 mi South 9.2 mph - N/A   Clear